Weather History for Beach, ND

Change the Weather History Date:

Monday, January 21, 2013

  Actual Average (KGDV) Record (KGDV)
Temperature  
Mean Temperature 0 °F -  
Max Temperature 5 °F 23 °F 44 °F (2000)
Min Temperature -4 °F 6 °F -13 °F (2008)
Degree Days  
Heating Degree Days 64    
Moisture  
Dew Point -6 °F    
Average Humidity 71    
Maximum Humidity 85    
Minimum Humidity 61    
Precipitation  
Precipitation 0.10 in - - ()
Sea Level Pressure  
Sea Level Pressure 30.22 in    
Wind  
Wind Speed 10 mph (WNW)    
Max Wind Speed 18 mph    
Max Gust Speed 22 mph    
Visibility 9 miles    
Events Snow    
Averages and records for this station are not official NWS values.
T = Trace of Precipitation, MM = Missing Value Source: NWS Daily Summary

Daily Weather History Graph

Daily Weather History Graph

Search for Another Location

Airport:

Trip Planner

Search our weather history database for the weather conditions in past years. The results will help you decide how hot, cold, wet, or windy it might be!

Date:

Astronomy

Jan. 21, 2013 Rise Set
Actual Time 7:32 AM MST 4:43 PM MST
Civil Twilight 6:58 AM MST 5:16 PM MST
Nautical Twilight 6:21 AM MST 5:53 PM MST
Astronomical Twilight 5:45 AM MST 6:30 PM MST
Moon 12:23 PM MST (1/21) 3:03 AM MST (1/21)
Length of Visible Light 10h 17m
Length of Day
9h 10m
Waxing Gibbous, 75% of the Moon is Illuminated
Jan 21
Waxing Gibbous
Jan 26
Full
Feb 3
Last Quarter
Feb 10
New
Feb 17
First Quarter

Hourly Weather History & Observations

Time (MST) Temp. Windchill Dew Point Humidity Pressure Visibility Wind Dir Wind Speed Gust Speed Precip Events Conditions
12:15 AM -4.0 °F -23.7 °F -13.0 °F 65% 30.34 in 10.0 mi WNW 13.8 mph - N/A   Overcast
12:35 AM -4.0 °F -26.4 °F -13.0 °F 65% 30.33 in 10.0 mi NW 18.4 mph 21.9 mph N/A   Overcast
12:55 AM -4.0 °F -26.4 °F -13.0 °F 65% 30.32 in 10.0 mi WNW 18.4 mph - N/A   Overcast
1:15 AM -4.0 °F -24.5 °F -13.0 °F 65% 30.32 in 10.0 mi NW 15.0 mph - N/A   Overcast
1:35 AM -4.0 °F -25.2 °F -13.0 °F 65% 30.31 in 10.0 mi WNW 16.1 mph - N/A   Overcast
1:55 AM -4.0 °F -23.7 °F -13.0 °F 65% 30.31 in 10.0 mi NW 13.8 mph - N/A   Overcast
2:15 AM -4.0 °F -25.2 °F -13.0 °F 65% 30.30 in 10.0 mi NW 16.1 mph - N/A   Overcast
2:35 AM -4.0 °F -23.7 °F -11.2 °F 71% 30.30 in 10.0 mi NW 13.8 mph - N/A   Overcast
2:55 AM -4.0 °F -22.1 °F -11.2 °F 71% 30.31 in 10.0 mi NW 11.5 mph - N/A   Overcast
3:15 AM -2.2 °F -19.9 °F -11.2 °F 66% 30.29 in 10.0 mi NW 11.5 mph - N/A   Overcast
3:35 AM -2.2 °F -18.9 °F -11.2 °F 66% 30.29 in 10.0 mi WNW 10.4 mph - N/A   Overcast
3:55 AM -2.2 °F -18.0 °F -11.2 °F 66% 30.29 in 10.0 mi NW 9.2 mph - N/A   Overcast
4:15 AM -2.2 °F -20.7 °F -11.2 °F 66% 30.28 in 10.0 mi NW 12.7 mph - N/A   Overcast
4:35 AM -2.2 °F -18.9 °F -11.2 °F 66% 30.28 in 10.0 mi WNW 10.4 mph - N/A   Overcast
4:55 AM -2.2 °F -18.0 °F -9.4 °F 71% 30.28 in 10.0 mi WNW 9.2 mph - N/A   Overcast
5:15 AM -2.2 °F -18.9 °F -9.4 °F 71% 30.28 in 10.0 mi NW 10.4 mph - N/A   Overcast
5:35 AM -2.2 °F -18.0 °F -9.4 °F 71% 30.28 in 10.0 mi WNW 9.2 mph - N/A   Overcast
5:55 AM -2.2 °F -18.0 °F -9.4 °F 71% 30.28 in 10.0 mi WNW 9.2 mph - N/A   Overcast
6:15 AM -2.2 °F -18.9 °F -9.4 °F 71% 30.28 in 10.0 mi NW 10.4 mph - N/A   Overcast
6:35 AM -0.4 °F -17.6 °F -9.4 °F 66% 30.28 in 10.0 mi WNW 11.5 mph - N/A   Overcast
6:55 AM -0.4 °F -14.7 °F -7.6 °F 72% 30.27 in 10.0 mi WNW 8.1 mph - N/A   Overcast
7:15 AM -0.4 °F -15.7 °F -7.6 °F 72% 30.26 in 10.0 mi WNW 9.2 mph - N/A   Overcast
7:35 AM -0.4 °F -16.7 °F -9.4 °F 66% 30.27 in 10.0 mi WNW 10.4 mph - N/A   Overcast
7:55 AM -0.4 °F -17.6 °F -9.4 °F 66% 30.26 in 10.0 mi WNW 11.5 mph - N/A   Scattered Clouds
8:15 AM -0.4 °F -16.7 °F -9.4 °F 66% 30.27 in 10.0 mi WNW 10.4 mph - N/A   Clear
8:35 AM -0.4 °F -14.7 °F -9.4 °F 66% 30.27 in 10.0 mi WNW 8.1 mph - N/A   Scattered Clouds
8:55 AM -0.4 °F -14.7 °F -9.4 °F 66% 30.27 in 10.0 mi WNW 8.1 mph - N/A   Mostly Cloudy
9:15 AM -0.4 °F -15.7 °F -7.6 °F 72% 30.27 in 10.0 mi WNW 9.2 mph - N/A   Scattered Clouds
9:35 AM -0.4 °F -16.7 °F -7.6 °F 72% 30.27 in 10.0 mi WNW 10.4 mph - N/A   Partly Cloudy
9:55 AM -0.4 °F -15.7 °F -7.6 °F 72% 30.27 in 10.0 mi WNW 9.2 mph - N/A   Clear
10:15 AM -0.4 °F -15.7 °F -7.6 °F 72% 30.27 in 10.0 mi West 9.2 mph - N/A   Clear
10:35 AM 1.4 °F -13.5 °F -7.6 °F 66% 30.26 in 10.0 mi West 9.2 mph - N/A   Clear
10:55 AM 1.4 °F -13.5 °F -7.6 °F 66% 30.25 in 10.0 mi West 9.2 mph - N/A   Clear
11:15 AM 1.4 °F -13.5 °F -7.6 °F 66% 30.25 in 10.0 mi West 9.2 mph - N/A   Mostly Cloudy
11:35 AM 1.4 °F -11.3 °F -7.6 °F 66% 30.23 in 10.0 mi WNW 6.9 mph - N/A   Overcast
11:55 AM 3.2 °F -11.3 °F -7.6 °F 61% 30.22 in 10.0 mi West 9.2 mph - N/A   Overcast
12:15 PM 3.2 °F -10.3 °F -5.8 °F 66% 30.21 in 10.0 mi WNW 8.1 mph - N/A   Overcast
12:35 PM 5.0 °F -8.1 °F -4.0 °F 66% 30.20 in 10.0 mi WNW 8.1 mph - N/A   Overcast
12:55 PM 5.0 °F -6.9 °F -4.0 °F 66% 30.19 in 10.0 mi West 6.9 mph - N/A   Overcast
1:15 PM 5.0 °F -6.9 °F -4.0 °F 66% 30.19 in 10.0 mi West 6.9 mph - N/A   Overcast
1:35 PM 5.0 °F -6.9 °F -4.0 °F 66% 30.19 in 10.0 mi WNW 6.9 mph - N/A   Overcast
1:55 PM 5.0 °F -5.6 °F -2.2 °F 72% 30.19 in 10.0 mi WNW 5.8 mph - N/A   Overcast
2:15 PM 5.0 °F -4.1 °F -4.0 °F 66% 30.18 in 10.0 mi West 4.6 mph - N/A   Mostly Cloudy
2:35 PM 5.0 °F -4.1 °F -2.2 °F 72% 30.17 in 10.0 mi WNW 4.6 mph - N/A   Mostly Cloudy
2:55 PM 5.0 °F - -4.0 °F 66% 30.16 in 10.0 mi Calm Calm - N/A   Mostly Cloudy
3:15 PM 5.0 °F - -4.0 °F 66% 30.16 in 10.0 mi Calm Calm - N/A   Overcast
3:35 PM 5.0 °F -5.6 °F -4.0 °F 66% 30.17 in 10.0 mi WNW 5.8 mph - N/A   Overcast
3:55 PM 5.0 °F -2.1 °F -4.0 °F 66% 30.17 in 10.0 mi WNW 3.5 mph - N/A   Overcast
4:15 PM 5.0 °F - -4.0 °F 66% 30.16 in 10.0 mi Calm Calm - N/A Snow Light Snow
4:35 PM 5.0 °F - -2.2 °F 72% 30.16 in 5.0 mi Calm Calm - N/A Snow Light Snow
4:55 PM 5.0 °F - -2.2 °F 72% 30.15 in 8.0 mi Calm Calm - N/A Snow Light Snow
5:15 PM 5.0 °F - -2.2 °F 72% 30.14 in 10.0 mi Calm Calm - N/A Snow Light Snow
5:55 PM 5.0 °F -2.1 °F -2.2 °F 72% 30.13 in 10.0 mi East 3.5 mph - N/A   Overcast
6:15 PM 5.0 °F -2.1 °F -0.4 °F 78% 30.14 in 9.0 mi ESE 3.5 mph - N/A Snow Light Snow
6:35 PM 5.0 °F -2.1 °F -0.4 °F 78% 30.14 in 10.0 mi ESE 3.5 mph - N/A   Overcast
6:55 PM 5.0 °F -4.1 °F -0.4 °F 78% 30.14 in 2.5 mi ESE 4.6 mph - 0.03 in Snow Light Snow
7:15 PM 5.0 °F -4.1 °F -0.4 °F 78% 30.14 in 3.0 mi SE 4.6 mph - 0.03 in Snow Light Snow
7:35 PM 5.0 °F -5.6 °F -0.4 °F 78% 30.13 in 3.0 mi SE 5.8 mph - 0.04 in Snow Light Snow
7:55 PM 5.0 °F -6.9 °F -0.4 °F 78% 30.13 in 4.0 mi SE 6.9 mph - 0.05 in Snow Light Snow
8:15 PM 5.0 °F -6.9 °F 1.4 °F 85% 30.13 in 4.0 mi SE 6.9 mph - N/A Snow Light Snow
8:35 PM 5.0 °F -5.6 °F 1.4 °F 85% 30.14 in 4.0 mi SE 5.8 mph - N/A Snow Light Snow
8:55 PM 5.0 °F -6.9 °F 1.4 °F 85% 30.12 in 4.0 mi SE 6.9 mph - 0.01 in Snow Light Snow
9:15 PM 5.0 °F -8.1 °F 1.4 °F 85% 30.12 in 2.5 mi SE 8.1 mph - N/A Snow Light Snow
9:35 PM 5.0 °F -8.1 °F 1.4 °F 85% 30.12 in 6.0 mi SE 8.1 mph - 0.01 in   Overcast
9:55 PM 5.0 °F -9.1 °F 1.4 °F 85% 30.11 in 10.0 mi SSE 9.2 mph - 0.01 in   Overcast
10:15 PM 5.0 °F -9.1 °F 1.4 °F 85% 30.10 in 3.0 mi SE 9.2 mph - N/A Snow Light Snow
10:35 PM 5.0 °F -8.1 °F 1.4 °F 85% 30.10 in 7.0 mi SE 8.1 mph - N/A   Overcast
10:55 PM 5.0 °F -9.1 °F 1.4 °F 85% 30.09 in 7.0 mi SE 9.2 mph - N/A   Mostly Cloudy
11:15 PM 5.0 °F -5.6 °F 1.4 °F 85% 30.09 in 10.0 mi SE 5.8 mph - N/A   Mostly Cloudy
11:35 PM 5.0 °F -6.9 °F 1.4 °F 85% 30.09 in 10.0 mi SSE 6.9 mph - N/A   Mostly Cloudy